Year,Month,Day,Hour,Minute,Value (Times are PST for temperature in C)
2009,07,24,00,00,13.10
2009,07,24,00,01,13.10
2009,07,24,00,02,13.10
2009,07,24,00,03,13.10
2009,07,24,00,04,13.20
2009,07,24,00,05,13.20
2009,07,24,00,06,13.20
2009,07,24,00,07,13.20
2009,07,24,00,08,13.20
2009,07,24,00,09,13.20
2009,07,24,00,10,13.20
2009,07,24,00,11,13.20
2009,07,24,00,12,13.20
2009,07,24,00,13,13.20
2009,07,24,00,14,13.20
2009,07,24,00,15,13.20
2009,07,24,00,16,13.20
2009,07,24,00,17,13.20
2009,07,24,00,18,13.30
2009,07,24,00,19,13.30
2009,07,24,00,20,13.30
2009,07,24,00,21,13.30
2009,07,24,00,22,13.30
2009,07,24,00,23,13.30
2009,07,24,00,24,13.30
2009,07,24,00,25,13.30
2009,07,24,00,26,13.30
2009,07,24,00,27,13.30
2009,07,24,00,28,13.30
2009,07,24,00,29,13.30
2009,07,24,00,30,13.30
2009,07,24,00,31,13.30
2009,07,24,00,32,13.30
2009,07,24,00,33,13.30
2009,07,24,00,34,13.30
2009,07,24,00,35,13.30
2009,07,24,00,36,13.30
2009,07,24,00,37,13.30
2009,07,24,00,38,13.30
2009,07,24,00,39,13.30
2009,07,24,00,40,13.30
2009,07,24,00,41,13.30
2009,07,24,00,42,13.30
2009,07,24,00,43,13.30
2009,07,24,00,44,13.30
2009,07,24,00,45,13.30
2009,07,24,00,46,13.30
2009,07,24,00,47,13.30
2009,07,24,00,48,13.30
2009,07,24,00,49,13.30
2009,07,24,00,50,13.30
2009,07,24,00,51,13.30
2009,07,24,00,52,13.30
2009,07,24,00,53,13.30
2009,07,24,00,54,13.30
2009,07,24,00,55,13.30
2009,07,24,00,56,13.30
2009,07,24,00,57,13.30
2009,07,24,00,58,13.30
2009,07,24,00,59,13.30
2009,07,24,01,00,13.30
2009,07,24,01,01,13.30
2009,07,24,01,02,13.30
2009,07,24,01,03,13.30
2009,07,24,01,04,13.30
2009,07,24,01,05,13.30
2009,07,24,01,06,13.30
2009,07,24,01,07,13.30
2009,07,24,01,08,13.30
2009,07,24,01,09,13.30
2009,07,24,01,10,13.30
2009,07,24,01,11,13.30
2009,07,24,01,12,13.30
2009,07,24,01,13,13.30
2009,07,24,01,14,13.30
2009,07,24,01,15,13.20
2009,07,24,01,16,13.20
2009,07,24,01,17,13.20
2009,07,24,01,18,13.20
2009,07,24,01,19,13.20
2009,07,24,01,20,13.20
2009,07,24,01,21,13.20
2009,07,24,01,22,13.20
2009,07,24,01,23,13.20
2009,07,24,01,24,13.10
2009,07,24,01,25,13.10
2009,07,24,01,26,13.10
2009,07,24,01,27,13.10
2009,07,24,01,28,13.10
2009,07,24,01,29,13.10
2009,07,24,01,30,13.10
2009,07,24,01,31,13.10
2009,07,24,01,32,13.10
2009,07,24,01,33,13.10
2009,07,24,01,34,13.10
2009,07,24,01,35,13.10
2009,07,24,01,36,13.10
2009,07,24,01,37,13.10
2009,07,24,01,38,13.10
2009,07,24,01,39,13.10
2009,07,24,01,40,13.10
2009,07,24,01,41,13.10
2009,07,24,01,42,13.10
2009,07,24,01,43,13.10
2009,07,24,01,44,13.10
2009,07,24,01,45,13.10
2009,07,24,01,46,13.10
2009,07,24,01,47,13.10
2009,07,24,01,48,13.10
2009,07,24,01,49,13.10
2009,07,24,01,50,13.10
2009,07,24,01,51,13.10
2009,07,24,01,52,13.10
2009,07,24,01,53,13.10
2009,07,24,01,54,13.10
2009,07,24,01,55,13.20
2009,07,24,01,56,13.20
2009,07,24,01,57,13.20
2009,07,24,01,58,13.20
2009,07,24,01,59,13.20
2009,07,24,02,00,13.20
2009,07,24,02,01,13.20
2009,07,24,02,02,13.20
2009,07,24,02,03,13.20
2009,07,24,02,04,13.20
2009,07,24,02,05,13.20
2009,07,24,02,06,13.20
2009,07,24,02,07,13.20
2009,07,24,02,08,13.20
2009,07,24,02,09,13.20
2009,07,24,02,10,13.20
2009,07,24,02,11,13.20
2009,07,24,02,12,13.20
2009,07,24,02,13,13.20
2009,07,24,02,14,13.20
2009,07,24,02,15,13.10
2009,07,24,02,16,13.10
2009,07,24,02,17,13.10
2009,07,24,02,18,13.10
2009,07,24,02,19,13.10
2009,07,24,02,20,13.00
2009,07,24,02,21,13.00
2009,07,24,02,22,13.00
2009,07,24,02,23,12.90
2009,07,24,02,24,12.90
2009,07,24,02,25,12.90
2009,07,24,02,26,12.80
2009,07,24,02,27,12.80
2009,07,24,02,28,12.80
2009,07,24,02,29,12.80
2009,07,24,02,30,12.80
2009,07,24,02,31,12.70
2009,07,24,02,32,12.70
2009,07,24,02,33,12.70
2009,07,24,02,34,12.60
2009,07,24,02,35,12.60
2009,07,24,02,36,12.60
2009,07,24,02,37,12.50
2009,07,24,02,38,12.50
2009,07,24,02,39,12.50
2009,07,24,02,40,12.50
2009,07,24,02,41,12.50
2009,07,24,02,42,12.50
2009,07,24,02,43,12.50
2009,07,24,02,44,12.40
2009,07,24,02,45,12.40
2009,07,24,02,46,12.40
2009,07,24,02,47,12.40
2009,07,24,02,48,12.40
2009,07,24,02,49,12.30
2009,07,24,02,50,12.30
2009,07,24,02,51,12.30
2009,07,24,02,52,12.30
2009,07,24,02,53,12.30
2009,07,24,02,54,12.30
2009,07,24,02,55,12.30
2009,07,24,02,56,12.30
2009,07,24,02,57,12.20
2009,07,24,02,58,12.20
2009,07,24,02,59,12.20
2009,07,24,03,00,12.20
2009,07,24,03,01,12.10
2009,07,24,03,02,12.10
2009,07,24,03,03,12.10
2009,07,24,03,04,12.10
2009,07,24,03,05,12.00
2009,07,24,03,06,12.00
2009,07,24,03,07,12.00
2009,07,24,03,08,11.90
2009,07,24,03,09,11.90
2009,07,24,03,10,11.90
2009,07,24,03,11,11.80
2009,07,24,03,12,11.80
2009,07,24,03,13,11.80
2009,07,24,03,14,11.80
2009,07,24,03,15,11.80
2009,07,24,03,16,11.80
2009,07,24,03,17,11.80
2009,07,24,03,18,11.80
2009,07,24,03,19,11.80
2009,07,24,03,20,11.80
2009,07,24,03,21,11.80
2009,07,24,03,22,11.80
2009,07,24,03,23,11.80
2009,07,24,03,24,11.70
2009,07,24,03,25,11.70
2009,07,24,03,26,11.70
2009,07,24,03,27,11.70
2009,07,24,03,28,11.70
2009,07,24,03,29,11.70
2009,07,24,03,30,11.70
2009,07,24,03,31,11.70
2009,07,24,03,32,11.70
2009,07,24,03,33,11.70
2009,07,24,03,34,11.70
2009,07,24,03,35,11.70
2009,07,24,03,36,11.70
2009,07,24,03,37,11.60
2009,07,24,03,38,11.60
2009,07,24,03,39,11.60
2009,07,24,03,40,11.60
2009,07,24,03,41,11.60
2009,07,24,03,42,11.60
2009,07,24,03,43,11.60
2009,07,24,03,44,11.60
2009,07,24,03,45,11.60
2009,07,24,03,46,11.60
2009,07,24,03,47,11.60
2009,07,24,03,48,11.60
2009,07,24,03,49,11.60
2009,07,24,03,50,11.60
2009,07,24,03,51,11.50
2009,07,24,03,52,11.40
2009,07,24,03,53,11.40
2009,07,24,03,54,11.40
2009,07,24,03,55,11.40
2009,07,24,03,56,11.40
2009,07,24,03,57,11.40
2009,07,24,03,58,11.40
2009,07,24,03,59,11.40
2009,07,24,04,00,11.30
2009,07,24,04,01,11.30
2009,07,24,04,02,11.30
2009,07,24,04,03,11.20
2009,07,24,04,04,11.20
2009,07,24,04,05,11.20
2009,07,24,04,06,11.20
2009,07,24,04,07,11.10
2009,07,24,04,08,11.10
2009,07,24,04,09,11.10
2009,07,24,04,10,11.10
2009,07,24,04,11,11.10
2009,07,24,04,12,11.10
2009,07,24,04,13,11.10
2009,07,24,04,14,11.10
2009,07,24,04,15,11.10
2009,07,24,04,16,11.00
2009,07,24,04,17,10.90
2009,07,24,04,18,10.90
2009,07,24,04,19,10.90
2009,07,24,04,20,10.90
2009,07,24,04,21,10.90
2009,07,24,04,22,10.90
2009,07,24,04,23,10.90
2009,07,24,04,24,10.90
2009,07,24,04,25,10.90
2009,07,24,04,26,10.90
2009,07,24,04,27,10.80
2009,07,24,04,28,10.80
2009,07,24,04,29,10.80
2009,07,24,04,30,10.70
2009,07,24,04,31,10.70
2009,07,24,04,32,10.70
2009,07,24,04,33,10.70
2009,07,24,04,34,10.70
2009,07,24,04,35,10.70
2009,07,24,04,36,10.60
2009,07,24,04,37,10.60
2009,07,24,04,38,10.60
2009,07,24,04,39,10.60
2009,07,24,04,40,10.60
2009,07,24,04,41,10.60
2009,07,24,04,42,10.60
2009,07,24,04,43,10.60
2009,07,24,04,44,10.60
2009,07,24,04,45,10.60
2009,07,24,04,46,10.60
2009,07,24,04,47,10.60
2009,07,24,04,48,10.60
2009,07,24,04,49,10.60
2009,07,24,04,50,10.60
2009,07,24,04,51,10.60
2009,07,24,04,52,10.60
2009,07,24,04,53,10.60
2009,07,24,04,54,10.60
2009,07,24,04,55,10.60
2009,07,24,04,56,10.60
2009,07,24,04,57,10.60
2009,07,24,04,58,10.60
2009,07,24,04,59,10.60
2009,07,24,05,00,10.60
2009,07,24,05,01,10.60
2009,07,24,05,02,10.60
2009,07,24,05,03,10.60
2009,07,24,05,04,10.60
2009,07,24,05,05,10.60
2009,07,24,05,06,10.60
2009,07,24,05,07,10.60
2009,07,24,05,08,10.70
2009,07,24,05,09,10.70
2009,07,24,05,10,10.70
2009,07,24,05,11,10.70
2009,07,24,05,12,10.70
2009,07,24,05,13,10.70
2009,07,24,05,14,10.70
2009,07,24,05,15,10.70
2009,07,24,05,16,10.70
2009,07,24,05,17,10.70
2009,07,24,05,18,10.70
2009,07,24,05,19,10.60
2009,07,24,05,20,10.60
2009,07,24,05,21,10.60
2009,07,24,05,22,10.60
2009,07,24,05,23,10.60
2009,07,24,05,24,10.60
2009,07,24,05,25,10.60
2009,07,24,05,26,10.60
2009,07,24,05,27,10.60
2009,07,24,05,28,10.60
2009,07,24,05,29,10.60
2009,07,24,05,30,10.60
2009,07,24,05,31,10.60
2009,07,24,05,32,10.60
2009,07,24,05,33,10.60
2009,07,24,05,34,10.60
2009,07,24,05,35,10.60
2009,07,24,05,36,10.60
2009,07,24,05,37,10.60
2009,07,24,05,38,10.60
2009,07,24,05,39,10.60
2009,07,24,05,40,10.60
2009,07,24,05,41,10.60
2009,07,24,05,42,10.60
2009,07,24,05,43,10.60
2009,07,24,05,44,10.60
2009,07,24,05,45,10.60
2009,07,24,05,46,10.60
2009,07,24,05,47,10.60
2009,07,24,05,48,10.60
2009,07,24,05,49,10.60
2009,07,24,05,50,10.60
2009,07,24,05,51,10.60
2009,07,24,05,52,10.60
2009,07,24,05,53,10.60
2009,07,24,05,54,10.60
2009,07,24,05,55,10.60
2009,07,24,05,56,10.60
2009,07,24,05,57,10.60
2009,07,24,05,58,10.60
2009,07,24,05,59,10.60
2009,07,24,06,00,10.60
2009,07,24,06,01,10.60
2009,07,24,06,02,10.60
2009,07,24,06,03,10.60
2009,07,24,06,04,10.60
2009,07,24,06,05,10.60
2009,07,24,06,06,10.60
2009,07,24,06,07,10.60
2009,07,24,06,08,10.60
2009,07,24,06,09,10.60
2009,07,24,06,10,10.60
2009,07,24,06,11,10.60
2009,07,24,06,12,10.70
2009,07,24,06,13,10.70
2009,07,24,06,14,10.70
2009,07,24,06,15,10.70
2009,07,24,06,16,10.70
2009,07,24,06,17,10.70
2009,07,24,06,18,10.70
2009,07,24,06,19,10.70
2009,07,24,06,20,10.80
2009,07,24,06,21,10.80
2009,07,24,06,22,10.90
2009,07,24,06,23,10.90
2009,07,24,06,24,11.00
2009,07,24,06,25,11.10
2009,07,24,06,26,11.10
2009,07,24,06,27,11.20
2009,07,24,06,28,11.20
2009,07,24,06,29,11.30
2009,07,24,06,30,11.30
2009,07,24,06,31,11.40
2009,07,24,06,32,11.40
2009,07,24,06,33,11.40
2009,07,24,06,34,11.40
2009,07,24,06,35,11.40
2009,07,24,06,36,11.40
2009,07,24,06,37,11.40
2009,07,24,06,38,11.50
2009,07,24,06,39,11.60
2009,07,24,06,40,11.60
2009,07,24,06,41,11.60
2009,07,24,06,42,11.60
2009,07,24,06,43,11.60
2009,07,24,06,44,11.60
2009,07,24,06,45,11.60
2009,07,24,06,46,11.60
2009,07,24,06,47,11.60
2009,07,24,06,48,11.60
2009,07,24,06,49,11.60
2009,07,24,06,50,11.60
2009,07,24,06,51,11.60
2009,07,24,06,52,11.60
2009,07,24,06,53,11.60
2009,07,24,06,54,11.60
2009,07,24,06,55,11.60
2009,07,24,06,56,11.70
2009,07,24,06,57,11.70
2009,07,24,06,58,11.70
2009,07,24,06,59,11.80
2009,07,24,07,00,11.80
2009,07,24,07,01,11.80
2009,07,24,07,02,11.90
2009,07,24,07,03,11.90
2009,07,24,07,04,12.00
2009,07,24,07,05,12.00
2009,07,24,07,06,12.10
2009,07,24,07,07,12.10
2009,07,24,07,08,12.10
2009,07,24,07,09,12.10
2009,07,24,07,10,12.20
2009,07,24,07,11,12.20
2009,07,24,07,12,12.20
2009,07,24,07,13,12.30
2009,07,24,07,14,12.30
2009,07,24,07,15,12.30
2009,07,24,07,16,12.30
2009,07,24,07,17,12.30
2009,07,24,07,18,12.30
2009,07,24,07,19,12.30
2009,07,24,07,20,12.30
2009,07,24,07,21,12.20
2009,07,24,07,22,12.30
2009,07,24,07,23,12.30
2009,07,24,07,24,12.20
2009,07,24,07,25,12.20
2009,07,24,07,26,12.30
2009,07,24,07,27,12.30
2009,07,24,07,28,12.30
2009,07,24,07,29,12.30
2009,07,24,07,30,12.30
2009,07,24,07,31,12.40
2009,07,24,07,32,12.40
2009,07,24,07,33,12.50
2009,07,24,07,34,12.50
2009,07,24,07,35,12.50
2009,07,24,07,36,12.60
2009,07,24,07,37,12.60
2009,07,24,07,38,12.60
2009,07,24,07,39,12.70
2009,07,24,07,40,12.70
2009,07,24,07,41,12.80
2009,07,24,07,42,12.80
2009,07,24,07,43,12.90
2009,07,24,07,44,12.90
2009,07,24,07,45,13.00
2009,07,24,07,46,13.00
2009,07,24,07,47,13.00
2009,07,24,07,48,13.10
2009,07,24,07,49,13.10
2009,07,24,07,50,13.20
2009,07,24,07,51,13.30
2009,07,24,07,52,13.30
2009,07,24,07,53,13.30
2009,07,24,07,54,13.30
2009,07,24,07,55,13.40
2009,07,24,07,56,13.50
2009,07,24,07,57,13.50
2009,07,24,07,58,13.60
2009,07,24,07,59,13.60
2009,07,24,08,00,13.70
2009,07,24,08,01,13.70
2009,07,24,08,02,13.80
2009,07,24,08,03,13.90
2009,07,24,08,04,14.00
2009,07,24,08,05,14.10
2009,07,24,08,06,14.20
2009,07,24,08,07,14.20
2009,07,24,08,08,14.30
2009,07,24,08,09,14.30
2009,07,24,08,10,14.20
2009,07,24,08,11,14.20
2009,07,24,08,12,14.20
2009,07,24,08,13,14.20
2009,07,24,08,14,14.20
2009,07,24,08,15,14.20
2009,07,24,08,16,14.30
2009,07,24,08,17,14.40
2009,07,24,08,18,14.50
2009,07,24,08,19,14.60
2009,07,24,08,20,14.70
2009,07,24,08,21,14.80
2009,07,24,08,22,14.80
2009,07,24,08,23,14.90
2009,07,24,08,24,15.00
2009,07,24,08,25,15.10
2009,07,24,08,26,15.20
2009,07,24,08,27,15.30
2009,07,24,08,28,15.30
2009,07,24,08,29,15.30
2009,07,24,08,30,15.20
2009,07,24,08,31,15.00
2009,07,24,08,32,14.90
2009,07,24,08,33,14.70
2009,07,24,08,34,14.70
2009,07,24,08,35,14.70
2009,07,24,08,36,14.60
2009,07,24,08,37,14.60
2009,07,24,08,38,14.60
2009,07,24,08,39,14.60
2009,07,24,08,40,14.60
2009,07,24,08,41,14.60
2009,07,24,08,42,14.60
2009,07,24,08,43,14.60
2009,07,24,08,44,14.40
2009,07,24,08,45,14.10
2009,07,24,08,46,13.70
2009,07,24,08,47,13.40
2009,07,24,08,48,13.20
2009,07,24,08,49,13.10
2009,07,24,08,50,13.00
2009,07,24,08,51,12.90
2009,07,24,08,52,12.90
2009,07,24,08,53,12.90
2009,07,24,08,54,13.00
2009,07,24,08,55,12.90
2009,07,24,08,56,12.90
2009,07,24,08,57,12.80
2009,07,24,08,58,12.80
2009,07,24,08,59,12.80
2009,07,24,09,00,12.80
2009,07,24,09,01,12.80
2009,07,24,09,02,12.80
2009,07,24,09,03,12.80
2009,07,24,09,04,12.70
2009,07,24,09,05,12.70
2009,07,24,09,06,12.70
2009,07,24,09,07,12.80
2009,07,24,09,08,12.90
2009,07,24,09,09,12.90
2009,07,24,09,10,13.00
2009,07,24,09,11,13.10
2009,07,24,09,12,13.10
2009,07,24,09,13,13.20
2009,07,24,09,14,13.30
2009,07,24,09,15,13.30
2009,07,24,09,16,13.30
2009,07,24,09,17,13.40
2009,07,24,09,18,13.40
2009,07,24,09,19,13.40
2009,07,24,09,20,13.40
2009,07,24,09,21,13.50
2009,07,24,09,22,13.80
2009,07,24,09,23,13.90
2009,07,24,09,24,13.90
2009,07,24,09,25,14.00
2009,07,24,09,26,14.00
2009,07,24,09,27,14.10
2009,07,24,09,28,14.20
2009,07,24,09,29,14.20
2009,07,24,09,30,14.20
2009,07,24,09,31,14.30
2009,07,24,09,32,14.50
2009,07,24,09,33,14.50
2009,07,24,09,34,14.50
2009,07,24,09,35,14.60
2009,07,24,09,36,14.60
2009,07,24,09,37,14.60
2009,07,24,09,38,14.80
2009,07,24,09,39,14.90
2009,07,24,09,40,15.00
2009,07,24,09,41,15.10
2009,07,24,09,42,15.20
2009,07,24,09,43,15.10
2009,07,24,09,44,15.10
2009,07,24,09,45,15.20
2009,07,24,09,46,15.20
2009,07,24,09,47,15.30
2009,07,24,09,48,15.30
2009,07,24,09,49,15.20
2009,07,24,09,50,15.10
2009,07,24,09,51,15.10
2009,07,24,09,52,15.00
2009,07,24,09,53,15.00
2009,07,24,09,54,15.00
2009,07,24,09,55,14.90
2009,07,24,09,56,14.90
2009,07,24,09,57,14.90
2009,07,24,09,58,14.80
2009,07,24,09,59,14.80
2009,07,24,10,00,14.70
2009,07,24,10,01,14.60
2009,07,24,10,02,14.60
2009,07,24,10,03,14.50
2009,07,24,10,04,14.50
2009,07,24,10,05,14.40
2009,07,24,10,06,14.30
2009,07,24,10,07,14.30
2009,07,24,10,08,14.20
2009,07,24,10,09,14.20
2009,07,24,10,10,14.20
2009,07,24,10,11,14.30
2009,07,24,10,12,14.30
2009,07,24,10,13,14.20
2009,07,24,10,14,14.10
2009,07,24,10,15,14.10
2009,07,24,10,16,14.10
2009,07,24,10,17,14.10
2009,07,24,10,18,14.10
2009,07,24,10,19,14.20
2009,07,24,10,20,14.20
2009,07,24,10,21,14.10
2009,07,24,10,22,14.00
2009,07,24,10,23,14.00
2009,07,24,10,24,13.80
2009,07,24,10,25,13.70
2009,07,24,10,26,13.60
2009,07,24,10,27,13.50
2009,07,24,10,28,13.40
2009,07,24,10,29,13.40
2009,07,24,10,30,13.50
2009,07,24,10,31,13.70
2009,07,24,10,32,13.80
2009,07,24,10,33,13.80
2009,07,24,10,34,14.00
2009,07,24,10,35,14.20
2009,07,24,10,36,14.40
2009,07,24,10,37,14.60
2009,07,24,10,38,14.60
2009,07,24,10,39,14.60
2009,07,24,10,40,14.50
2009,07,24,10,41,14.60
2009,07,24,10,42,14.70
2009,07,24,10,43,14.70
2009,07,24,10,44,14.80
2009,07,24,10,45,14.80
2009,07,24,10,46,14.90
2009,07,24,10,47,15.00
2009,07,24,10,48,15.10
2009,07,24,10,49,15.10
2009,07,24,10,50,15.10
2009,07,24,10,51,15.20
2009,07,24,10,52,15.10
2009,07,24,10,53,15.10
2009,07,24,10,54,15.10
2009,07,24,10,55,15.10
2009,07,24,10,56,15.10
2009,07,24,10,57,15.10
2009,07,24,10,58,15.20
2009,07,24,10,59,15.20
2009,07,24,11,00,15.20
2009,07,24,11,01,15.20
2009,07,24,11,02,15.10
2009,07,24,11,03,15.00
2009,07,24,11,04,14.90
2009,07,24,11,05,14.90
2009,07,24,11,06,14.80
2009,07,24,11,07,14.80
2009,07,24,11,08,14.90
2009,07,24,11,09,14.90
2009,07,24,11,10,15.00
2009,07,24,11,11,15.10
2009,07,24,11,12,15.20
2009,07,24,11,13,15.10
2009,07,24,11,14,15.10
2009,07,24,11,15,15.20
2009,07,24,11,16,15.40
2009,07,24,11,17,15.50
2009,07,24,11,18,15.60
2009,07,24,11,19,15.50
2009,07,24,11,20,15.40
2009,07,24,11,21,15.40
2009,07,24,11,22,15.20
2009,07,24,11,23,15.10
2009,07,24,11,24,15.00
2009,07,24,11,25,15.00
2009,07,24,11,26,15.00
2009,07,24,11,27,15.00
2009,07,24,11,28,15.10
2009,07,24,11,29,15.10
2009,07,24,11,30,15.30
2009,07,24,11,31,15.40
2009,07,24,11,32,15.50
2009,07,24,11,33,15.50
2009,07,24,11,34,15.60
2009,07,24,11,35,15.70
2009,07,24,11,36,15.60
2009,07,24,11,37,15.30
2009,07,24,11,38,15.00
2009,07,24,11,39,14.70
2009,07,24,11,40,14.50
2009,07,24,11,41,14.40
2009,07,24,11,42,14.20
2009,07,24,11,43,14.10
2009,07,24,11,44,14.00
2009,07,24,11,45,13.90
2009,07,24,11,46,13.80
2009,07,24,11,47,13.90
2009,07,24,11,48,13.90
2009,07,24,11,49,14.00
2009,07,24,11,50,13.90
2009,07,24,11,51,13.70
2009,07,24,11,52,13.50
2009,07,24,11,53,13.30
2009,07,24,11,54,13.20
2009,07,24,11,55,13.30
2009,07,24,11,56,13.30
2009,07,24,11,57,13.30
2009,07,24,11,58,13.30
2009,07,24,11,59,13.30
2009,07,24,12,00,13.20
2009,07,24,12,01,13.10
2009,07,24,12,02,13.10
2009,07,24,12,03,13.00
2009,07,24,12,04,13.00
2009,07,24,12,05,13.00
2009,07,24,12,06,13.00
2009,07,24,12,07,12.90
2009,07,24,12,08,12.90
2009,07,24,12,09,13.00
2009,07,24,12,10,13.10
2009,07,24,12,11,13.20
2009,07,24,12,12,13.20
2009,07,24,12,13,13.20
2009,07,24,12,14,13.30
2009,07,24,12,15,13.40
2009,07,24,12,16,13.50
2009,07,24,12,17,13.60
2009,07,24,12,18,13.70
2009,07,24,12,19,13.80
2009,07,24,12,20,13.90
2009,07,24,12,21,13.90
2009,07,24,12,22,14.00
2009,07,24,12,23,14.10
2009,07,24,12,24,14.20
2009,07,24,12,25,14.20
2009,07,24,12,26,14.20
2009,07,24,12,27,14.10
2009,07,24,12,28,14.00
2009,07,24,12,29,14.00
2009,07,24,12,30,14.10
2009,07,24,12,31,14.10
2009,07,24,12,32,14.10
2009,07,24,12,33,14.10
2009,07,24,12,34,14.20
2009,07,24,12,35,14.30
2009,07,24,12,36,14.40
2009,07,24,12,37,14.40
2009,07,24,12,38,14.30
2009,07,24,12,39,14.20
2009,07,24,12,40,14.10
2009,07,24,12,41,13.90
2009,07,24,12,42,13.90
2009,07,24,12,43,14.20
2009,07,24,12,44,14.40
2009,07,24,12,45,14.50
2009,07,24,12,46,14.50
2009,07,24,12,47,14.60
2009,07,24,12,48,14.70
2009,07,24,12,49,14.70
2009,07,24,12,50,14.60
2009,07,24,12,51,14.60
2009,07,24,12,52,14.60
2009,07,24,12,53,14.80
2009,07,24,12,54,14.80
2009,07,24,12,55,14.70
2009,07,24,12,56,14.60
2009,07,24,12,57,14.60
2009,07,24,12,58,14.50
2009,07,24,12,59,14.60
2009,07,24,13,00,14.70
2009,07,24,13,01,14.70
2009,07,24,13,02,14.60
2009,07,24,13,03,14.50
2009,07,24,13,04,14.40
2009,07,24,13,05,14.20
2009,07,24,13,06,14.10
2009,07,24,13,07,14.00
2009,07,24,13,08,14.00
2009,07,24,13,09,14.00
2009,07,24,13,10,14.10
2009,07,24,13,11,14.20
2009,07,24,13,12,14.20
2009,07,24,13,13,14.20
2009,07,24,13,14,14.30
2009,07,24,13,15,14.40
2009,07,24,13,16,14.40
2009,07,24,13,17,14.40
2009,07,24,13,18,14.40
2009,07,24,13,19,14.50
2009,07,24,13,20,14.60
2009,07,24,13,21,14.60
2009,07,24,13,22,14.80
2009,07,24,13,23,15.00
2009,07,24,13,24,15.20
2009,07,24,13,25,15.40
2009,07,24,13,26,15.60
2009,07,24,13,27,15.80
2009,07,24,13,28,16.00
2009,07,24,13,29,16.10
2009,07,24,13,30,16.30
2009,07,24,13,31,16.40
2009,07,24,13,32,16.60
2009,07,24,13,33,16.70
2009,07,24,13,34,16.70
2009,07,24,13,35,16.80
2009,07,24,13,36,16.90
2009,07,24,13,37,16.90
2009,07,24,13,38,16.90
2009,07,24,13,39,16.80
2009,07,24,13,40,16.70
2009,07,24,13,41,16.70
2009,07,24,13,42,16.60
2009,07,24,13,43,16.40
2009,07,24,13,44,16.40
2009,07,24,13,45,16.50
2009,07,24,13,46,16.60
2009,07,24,13,47,16.40
2009,07,24,13,48,16.10
2009,07,24,13,49,15.70
2009,07,24,13,50,15.50
2009,07,24,13,51,15.50
2009,07,24,13,52,15.50
2009,07,24,13,53,15.60
2009,07,24,13,54,15.70
2009,07,24,13,55,15.70
2009,07,24,13,56,15.80
2009,07,24,13,57,16.00
2009,07,24,13,58,16.10
2009,07,24,13,59,16.10
2009,07,24,14,00,15.90
2009,07,24,14,01,15.80
2009,07,24,14,02,15.90
2009,07,24,14,03,16.00
2009,07,24,14,04,16.00
2009,07,24,14,05,15.90
2009,07,24,14,06,16.00
2009,07,24,14,07,16.10
2009,07,24,14,08,16.10
2009,07,24,14,09,16.10
2009,07,24,14,10,16.10
2009,07,24,14,11,15.90
2009,07,24,14,12,15.80
2009,07,24,14,13,15.70
2009,07,24,14,14,15.80
2009,07,24,14,15,15.70
2009,07,24,14,16,15.60
2009,07,24,14,17,15.50
2009,07,24,14,18,15.40
2009,07,24,14,19,15.30
2009,07,24,14,20,15.30
2009,07,24,14,21,15.20
2009,07,24,14,22,15.20
2009,07,24,14,23,15.30
2009,07,24,14,24,15.40
2009,07,24,14,25,15.50
2009,07,24,14,26,15.40
2009,07,24,14,27,15.50
2009,07,24,14,28,15.50
2009,07,24,14,29,15.70
2009,07,24,14,30,15.60
2009,07,24,14,31,15.40
2009,07,24,14,32,15.20
2009,07,24,14,33,15.00
2009,07,24,14,34,14.90
2009,07,24,14,35,14.90
2009,07,24,14,36,14.90
2009,07,24,14,37,14.90
2009,07,24,14,38,15.10
2009,07,24,14,39,15.20
2009,07,24,14,40,15.10
2009,07,24,14,41,15.10
2009,07,24,14,42,15.00
2009,07,24,14,43,15.00
2009,07,24,14,44,15.00
2009,07,24,14,45,15.10
2009,07,24,14,46,15.20
2009,07,24,14,47,15.30
2009,07,24,14,48,15.30
2009,07,24,14,49,15.30
2009,07,24,14,50,15.30
2009,07,24,14,51,15.40
2009,07,24,14,52,15.50
2009,07,24,14,53,15.70
2009,07,24,14,54,15.80
2009,07,24,14,55,15.90
2009,07,24,14,56,16.10
2009,07,24,14,57,16.30
2009,07,24,14,58,16.40
2009,07,24,14,59,16.50
2009,07,24,15,00,16.60
2009,07,24,15,01,16.70
2009,07,24,15,02,16.80
2009,07,24,15,03,17.00
2009,07,24,15,04,17.20
2009,07,24,15,05,17.30
2009,07,24,15,06,17.30
2009,07,24,15,07,17.20
2009,07,24,15,08,16.90
2009,07,24,15,09,16.60
2009,07,24,15,10,16.30
2009,07,24,15,11,16.20
2009,07,24,15,12,16.10
2009,07,24,15,13,16.10
2009,07,24,15,14,16.20
2009,07,24,15,15,16.20
2009,07,24,15,16,16.30
2009,07,24,15,17,16.40
2009,07,24,15,18,16.40
2009,07,24,15,19,16.40
2009,07,24,15,20,16.40
2009,07,24,15,21,16.50
2009,07,24,15,22,16.60
2009,07,24,15,23,16.80
2009,07,24,15,24,16.90
2009,07,24,15,25,17.00
2009,07,24,15,26,17.20
2009,07,24,15,27,17.30
2009,07,24,15,28,17.40
2009,07,24,15,29,17.40
2009,07,24,15,30,17.40
2009,07,24,15,31,17.50
2009,07,24,15,32,17.50
2009,07,24,15,33,17.70
2009,07,24,15,34,17.80
2009,07,24,15,35,17.90
2009,07,24,15,36,17.90
2009,07,24,15,37,18.00
2009,07,24,15,38,18.10
2009,07,24,15,39,18.20
2009,07,24,15,40,18.20
2009,07,24,15,41,18.20
2009,07,24,15,42,18.20
2009,07,24,15,43,18.20
2009,07,24,15,44,18.20
2009,07,24,15,45,18.20
2009,07,24,15,46,18.40
2009,07,24,15,47,18.40
2009,07,24,15,48,18.50
2009,07,24,15,49,18.60
2009,07,24,15,50,18.60
2009,07,24,15,51,18.70
2009,07,24,15,52,18.70
2009,07,24,15,53,18.70
2009,07,24,15,54,18.80
2009,07,24,15,55,18.90
2009,07,24,15,56,18.90
2009,07,24,15,57,18.90
2009,07,24,15,58,18.90
2009,07,24,15,59,19.00
2009,07,24,16,00,19.10
2009,07,24,16,01,19.10
2009,07,24,16,02,19.10
2009,07,24,16,03,18.90
2009,07,24,16,04,18.70
2009,07,24,16,05,18.50
2009,07,24,16,06,18.50
2009,07,24,16,07,18.50
2009,07,24,16,08,18.50
2009,07,24,16,09,18.50
2009,07,24,16,10,18.50
2009,07,24,16,11,18.60
2009,07,24,16,12,18.70
2009,07,24,16,13,18.80
2009,07,24,16,14,19.00
2009,07,24,16,15,19.10
2009,07,24,16,16,19.10
2009,07,24,16,17,19.10
2009,07,24,16,18,18.90
2009,07,24,16,19,18.90
2009,07,24,16,20,19.00
2009,07,24,16,21,19.00
2009,07,24,16,22,18.90
2009,07,24,16,23,18.80
2009,07,24,16,24,18.80
2009,07,24,16,25,18.80
2009,07,24,16,26,18.90
2009,07,24,16,27,18.90
2009,07,24,16,28,18.80
2009,07,24,16,29,18.60
2009,07,24,16,30,18.60
2009,07,24,16,31,18.60
2009,07,24,16,32,18.70
2009,07,24,16,33,18.80
2009,07,24,16,34,18.80
2009,07,24,16,35,18.80
2009,07,24,16,36,18.70
2009,07,24,16,37,18.70
2009,07,24,16,38,18.60
2009,07,24,16,39,18.60
2009,07,24,16,40,18.60
2009,07,24,16,41,18.60
2009,07,24,16,42,18.70
2009,07,24,16,43,18.90
2009,07,24,16,44,19.10
2009,07,24,16,45,19.10
2009,07,24,16,46,19.30
2009,07,24,16,47,19.30
2009,07,24,16,48,19.10
2009,07,24,16,49,19.00
2009,07,24,16,50,18.90
2009,07,24,16,51,18.90
2009,07,24,16,52,18.80
2009,07,24,16,53,18.70
2009,07,24,16,54,18.60
2009,07,24,16,55,18.60
2009,07,24,16,56,18.60
2009,07,24,16,57,18.60
2009,07,24,16,58,18.60
2009,07,24,16,59,18.70
2009,07,24,17,00,18.90
2009,07,24,17,01,18.90
2009,07,24,17,02,19.00
2009,07,24,17,03,19.10
2009,07,24,17,04,18.90
2009,07,24,17,05,18.70
2009,07,24,17,06,18.50
2009,07,24,17,07,18.40
2009,07,24,17,08,18.40
2009,07,24,17,09,18.50
2009,07,24,17,10,18.60
2009,07,24,17,11,18.70
2009,07,24,17,12,18.90
2009,07,24,17,13,18.90
2009,07,24,17,14,19.00
2009,07,24,17,15,19.10
2009,07,24,17,16,19.10
2009,07,24,17,17,19.10
2009,07,24,17,18,19.10
2009,07,24,17,19,19.10